Location: Lombard
(41.8800°N, 88.0080°W)
Time: 13:24:38
(UTC-05:00)

First-Move - Visible Passes

Search period start: 17 May 2022 00:00
Search period end: 27 May 2022 00:00
Orbit: 572 x 662 km, 97.6° (Epoch: 17 May)

Date Brightness Start Highest point End Pass type
(mag) Time Alt. Az. Time Alt. Az. Time Alt. Az.
19 May ? 03:56:21 10° ENE 03:58:33 14° E 04:00:44 10° SE visible
20 May ? 04:11:48 10° NE 04:14:57 21° E 04:18:05 10° SE visible
21 May ? 04:27:38 10° NNE 04:31:18 32° E 04:34:58 10° SSE visible
22 May ? 04:43:39 10° NNE 04:47:37 50° E 04:51:35 10° S visible
25 May ? 03:57:35 10° NE 03:59:58 15° E 04:02:21 10° SE visible
26 May ? 04:13:03 10° NE 04:16:19 22° E 04:19:34 10° SSE visible
